sat.trackr.live / text

‹ back to catalog

STARLINK-4570

NORAD 53690 · 2022-105AU

PAYLOAD ACTIVE UNKNOWN

§ Identity

Operator
Country
US
Launch date
2022-08-31
Launch site
AFWTR
Launch vehicle
Mass (kg)
RCS (m²)

Purposes: comms

External: N2YO · Heavens-Above · Gunter

§ Orbital elements

Epoch: 2026-09-20T14:42:08.030880Z

Period
95.64 min
Inclination
97.2850°
Eccentricity
0.0001909
Mean motion
15.05658938 rev/d
Perigee alt
548.2 km
Apogee alt
550.8 km
Semi-major
6,927.6 km
B*
3.3619e-5
RAAN
137.3926°
Arg perigee
80.4860°
Mean anomaly
279.6584°
Rev number
22,256

§ Raw data

STARLINK-45701 53690U 22105AU  26263.61259295  .00000429  00000+0  33619-4 0  99912 53690  97.2850 137.3926 0001909  80.4860 279.6584 15.05658938222560

JSON: /api/v1/satellites/53690 · /tle

For live sub-satellite position, see the globe view (requires WebGL).

§ Visibility from observer

Set your observer location to see the next 7 days of passes ≥ 10°. The values pass through the URL so the page stays shareable.

No JS? Fill the form by hand. The geolocation button needs JavaScript.